User: anonymous   Login
Location: ???????
(55.4362°N, 38.1183°E)
Time: 21:41:54
(UTC+00:00)
Language:

RESURS 01 DEB - Orbit

View from above orbital plane
View from above orbital plane
View from above satellite
View from above satellite

Ground track
Ground track

The orbit data is extracted from the following two-line orbital elements,

1 46882U 94074BN  22021.41071630  .00004832  00000-0  60722-3 0  9998
2 46882  97.9110  73.9058 0012343 206.9524 153.1049 14.82515628 65703
Epoch (UTC): 21 January 2022 09:51:25
Eccentricity: 0.0012343
inclination: 97.9110°
perigee height: 613 km
apogee height: 630 km
right ascension of ascending node: 73.9058°
argument of perigee: 206.9524°
revolutions per day: 14.82515628
mean anomaly at epoch: 153.1049°
orbit number at epoch: 6570

The dashed part of the orbit path shows where the satellite is in the earth's shadow,  

DLR